Location: Santaluz Observatory
(32.9930°N, 117.1510°W)
Time: 01:32:02
(UTC-07:00)

HST - Visible Passes

Search period start: 24 October 2014 00:00
Search period end: 02 November 2014 23:00
Orbit: 546 x 550 km, 28.5° (Epoch: 23 October)

Date Brightness Start Highest point End Pass type
(mag) Time Alt. Az. Time Alt. Az. Time Alt. Az.
24 Oct 2.3 19:29:22 10° SSW 19:32:38 22° SSE 19:33:03 22° SSE visible
25 Oct 2.1 19:21:45 10° SW 19:25:17 26° SSE 19:26:16 24° SE visible
26 Oct 2.0 19:14:13 10° SW 19:17:56 31° SSE 19:19:27 24° SE visible
27 Oct 1.8 19:06:45 10° SW 19:10:36 35° S 19:12:36 22° ESE visible
27 Oct 3.9 20:47:45 10° WSW 20:48:08 12° WSW 20:48:08 12° WSW visible
28 Oct 1.7 18:59:20 10° WSW 19:03:16 40° S 19:05:43 20° ESE visible
28 Oct 3.7 20:40:27 10° WSW 20:41:16 15° WSW 20:41:16 15° WSW visible
29 Oct 1.6 18:51:57 10° WSW 18:55:56 43° S 18:58:50 17° ESE visible
29 Oct 3.4 20:33:10 10° WSW 20:34:23 18° WSW 20:34:23 18° WSW visible
30 Oct 1.6 18:44:35 10° WSW 18:48:35 45° S 18:51:58 14° ESE visible
30 Oct 3.2 20:25:54 10° WSW 20:27:30 20° WSW 20:27:30 20° WSW visible
31 Oct 1.6 18:37:14 10° WSW 18:41:15 45° S 18:45:06 11° ESE visible
31 Oct 3.0 20:18:39 10° WSW 20:20:39 22° SW 20:20:39 22° SW visible
01 Nov 1.7 18:29:54 10° WSW 18:33:53 44° S 18:37:53 10° ESE visible
01 Nov 2.8 20:11:27 10° WSW 20:13:50 23° SW 20:13:50 23° SW visible
02 Nov 1.8 17:22:34 10° WSW 17:26:32 41° S 17:30:29 10° ESE visible
02 Nov 2.8 19:04:19 10° WSW 19:07:05 21° SSW 19:07:05 21° SSW visible
